Weather Roundup
Issued by NWS Chicago, IL

Home | Current Version | Previous Version | Graphics & Text | Print | Product List | Glossary On
Versions: 1 2 3 4 5 6 7 8 9 10 11 12 13 14 15 16 17 18 19 20 21 22 23 24 25 26 27 28 29 30 31 32 33 34 35 36 37 38 39 40 41 42 43 44 45 46 47 48 49 50
000
NZUS59 KLOT 251004
HRRLOT

CHICAGO AREA WEATHER ROUNDUP
NATIONAL WEATHER SERVICE CHICAGO/ROMEOVILLE IL
500 AM CDT SUN SEP 25 2016

NOTE: "FAIR" INDICATES FEW OR NO CLOUDS BELOW 12,000 FEET WITH NO
SIGNIFICANT WEATHER AND/OR OBSTRUCTIONS TO VISIBILITY.

* THESE STATIONS ARE NOT UNDER NWS QUALITY CONTROL. THEY ALSO MAY NOT
  REPORT WEATHER SUCH AS PRECIPITATION OR FOG.

ILZ005-006-012>014-019>023-251100-
NORTHEAST ILLINOIS

CITY           SKY/WX    TMP DP  RH WIND       PRES   REMARKS
OHARE          PTCLDY    65  59  81 SE10      30.09F
MIDWAY         PTCLDY    67  58  72 SE7       30.10F
AURORA         CLEAR     66  62  87 SE7       30.09S
LANSING*       PTCLDY    63  60  89 SE9       30.11F
JOLIET*        CLEAR     66  62  88 SE7       30.10S
WAUKEGAN       CLEAR     66  61  84 S10       30.09F
DUPAGE AIRPORT PTCLDY    65  60  84 SE7       30.09F
WHEELING       CLEAR     65  60  84 SE3       30.10F
KANKAKEE*      PTCLDY    64  60  90 E8        30.11S
MORRIS*        CLEAR     65  63  91 SE3       30.08S
LEWIS AIRPORT* CLEAR     64  62  93 SE10      30.09F
NORTHERLY ISL    N/A     65  59  81 E8          N/A
$$

WIZ051-052-058>065-066-070>072-251100-
SOUTHEAST WISCONSIN

CITY           SKY/WX    TMP DP  RH WIND       PRES   REMARKS
MILWAUKEE      PTCLDY    66  63  90 SE7       30.10F
KENOSHA*       PTCLDY    66  62  87 SE10      30.10F
RACINE*        CLEAR     67  62  84 S9        30.11F
WAUKESHA       PTCLDY    61  61 100 SE8       30.10S
WEST BEND      CLEAR     61  59  94 SE3       30.10S
$$

INZ001>003-010>013-019-020-251100-
NORTHWEST INDIANA

CITY           SKY/WX    TMP DP  RH WIND       PRES   REMARKS
GARY*          PTCLDY    64  59  82 SE12      30.12S
MICHIGAN CITY* NOT AVBL
RENSSELAER*    NOT AVBL
VALPARAISO     CLEAR     59  55  87 E7        30.14F
$$

LMZ740>746-251100-
SOUTHERN LAKE MICHIGAN

STATION/POSITION TIME  SKY/WX   TEMP WIND        PRES    VSBY
                                AIR  DIR/SP/G
                 (UTC)          (F)  (DEG/KT/KT) (MB)    (MI)
HARRISON CRIB    0900            68  160/ 17/ 21   N/A
BURNHAM HARBOR   1000            65  140/  9/ 10   N/A
CALUMET HARBOR   0900            66  150/  6/ 10 1019.3S
BURNS HARBOR     0900            65  140/ 14/ 24 1020.0F
MICHIGAN CITY    0900            63  120/ 13/ 17   N/A
$$

ABBREVIATIONS USED IN REMARKS
   TC - TEMPERATURE IN CELSIUS
  WCI - WIND CHILL INDEX
   HX - HEAT INDEX
  VSB - VISIBILITY
$$




USA.gov is the U.S. government's official web portal to all federal, state and local government web resources and services.